Find TIRSAT

NORAD ID: 58989 Int'l Des: 2024-032 Owner: JSS Country: J operational
LEOCIRCULARRETROGRADESSO

实时位置

正在加载3D地球...

关于 TIRSAT

正在加载描述...

即将过境

Passes for default location (London). Set your location on the main map for personalized predictions.

高度历史

Loading altitude history...

两行轨道根数

1 58989U 24032C 26106.60564914 .00000728 00000-0 12291-3 0 9995
2 58989 98.0016 165.9139 0004551 2.0828 358.0398 14.72314628116028
Epoch: Apr 16, 2026 • Age: 22 hours

当前状态

高度 667.4 km
速度 7.53 km/s
星下点 81.60°N, 30.03°E
发射日期 Feb 17, 2024
运行时间 2.1 years
类型 other

技术详情

分类 Payload
质量 5.00 kg
干质量 5.00 kg
总质量 5.00 kg
长度 0.38 m
直径 0.12 m
跨度 0.80 m
形状 Box +4 pan
制造商 JSS
平台类型 Cubesat 3U
阶段状态 In Orbit
所有者/国家 JSS/J

Most Searched